• In Lithuania
  • List of Countries
  • For 7 days
  • Water Temperature
  • Satellite Maps
  • Weather Map
  • Weather Widgets
  • user-avatar
    Login

    Hourly Weather Stanislawa

    Today, 22 September, Saturday

    Time Temperature Precipitation Wind Pressure Humidity
    00:00 +16°C° 0.6 mm 7 mps 745 mmHg 75%
    01:00 +14°C° 0 mm 6 mps 746 mmHg 77%
    02:00 +13°C° 0.1 mm 5 mps 746 mmHg 76%
    03:00 +13°C° 0.1 mm 5 mps 747 mmHg 75%
    04:00 +13°C° 0.1 mm 4 mps 748 mmHg 74%
    05:00 +13°C° 0 mm 5 mps 748 mmHg 73%
    06:00 +12°C° 0 mm 5 mps 749 mmHg 71%
    07:00 +11°C° 0 mm 6 mps 749 mmHg 70%
    08:00 +13°C° 0 mm 6 mps 749 mmHg 65%
    09:00 +14°C° 0 mm 7 mps 749 mmHg 60%
    10:00 +15°C° 0 mm 7 mps 749 mmHg 55%
    11:00 +15°C° 0 mm 7 mps 749 mmHg 54%
    12:00 +15°C° 0 mm 7 mps 749 mmHg 52%
    13:00 +16°C° 0 mm 7 mps 749 mmHg 51%
    14:00 +16°C° 0 mm 7 mps 749 mmHg 51%
    15:00 +16°C° 0 mm 7 mps 749 mmHg 51%
    16:00 +16°C° 0 mm 6 mps 749 mmHg 51%
    17:00 +15°C° 0 mm 5 mps 749 mmHg 54%
    18:00 +14°C° 0 mm 4 mps 749 mmHg 58%
    19:00 +13°C° 0 mm 3 mps 749 mmHg 61%
    20:00 +13°C° 0 mm 3 mps 749 mmHg 61%
    21:00 +12°C° 0 mm 3 mps 749 mmHg 61%
    22:00 +12°C° 0 mm 4 mps 749 mmHg 61%
    23:00 +12°C° 0 mm 4 mps 749 mmHg 62%

    Tomorrow, 23 September, Sunday

    Time Temperature Precipitation Wind Pressure Humidity
    00:00 +12°C° 0 mm 4 mps 749 mmHg 63%
    01:00 +12°C° 0 mm 4 mps 749 mmHg 64%
    02:00 +11°C° 0.1 mm 4 mps 749 mmHg 67%
    03:00 +11°C° 0.1 mm 4 mps 749 mmHg 70%
    04:00 +11°C° 0.1 mm 4 mps 749 mmHg 73%
    05:00 +11°C° 0.1 mm 4 mps 749 mmHg 75%
    06:00 +10°C° 0.1 mm 5 mps 748 mmHg 78%
    07:00 +10°C° 0.1 mm 5 mps 748 mmHg 81%
    08:00 +12°C° 0.1 mm 5 mps 748 mmHg 77%
    09:00 +13°C° 0.1 mm 5 mps 748 mmHg 73%
    10:00 +13°C° 0.1 mm 5 mps 748 mmHg 69%
    11:00 +14°C° 0.2 mm 5 mps 748 mmHg 68%
    12:00 +14°C° 0.2 mm 5 mps 747 mmHg 67%
    13:00 +14°C° 0.2 mm 4 mps 747 mmHg 66%
    14:00 +14°C° 0.2 mm 4 mps 746 mmHg 69%
    15:00 +13°C° 0.2 mm 3 mps 746 mmHg 71%
    16:00 +14°C° 0.2 mm 2 mps 745 mmHg 74%
    17:00 +13°C° 0.7 mm 3 mps 744 mmHg 78%
    18:00 +12°C° 0.7 mm 3 mps 743 mmHg 83%
    19:00 +11°C° 0.7 mm 3 mps 742 mmHg 88%
    20:00 +11°C° 5.4 mm 4 mps 741 mmHg 89%
    21:00 +10°C° 5.4 mm 5 mps 740 mmHg 91%
    22:00 +9°C° 5.4 mm 6 mps 738 mmHg 92%
    23:00 +9°C° 1.9 mm 6 mps 738 mmHg 92%

    Day after tomorrow, 24 September, Monday

    Time Temperature Precipitation Wind Pressure Humidity
    00:00 +9°C° 1.9 mm 6 mps 738 mmHg 91%
    01:00 +9°C° 1.9 mm 7 mps 738 mmHg 90%
    02:00 +9°C° 1.5 mm 7 mps 739 mmHg 88%
    03:00 +7°C° 1.5 mm 8 mps 741 mmHg 85%
    04:00 +7°C° 1.5 mm 8 mps 742 mmHg 83%
    05:00 +7°C° 0.1 mm 9 mps 744 mmHg 82%
    06:00 +7°C° 0.1 mm 9 mps 745 mmHg 81%
    07:00 +8°C° 0.1 mm 9 mps 747 mmHg 80%
    08:00 +8°C° 0.1 mm 10 mps 747 mmHg 75%
    09:00 +9°C° 0.1 mm 10 mps 748 mmHg 69%
    10:00 +9°C° 0.1 mm 11 mps 748 mmHg 63%
    11:00 +11°C° 0.1 mm 11 mps 749 mmHg 59%
    12:00 +11°C° 0.1 mm 11 mps 750 mmHg 56%
    13:00 +11°C° 0.1 mm 11 mps 750 mmHg 52%
    14:00 +11°C° 0.2 mm 11 mps 751 mmHg 54%
    15:00 +11°C° 0.2 mm 10 mps 751 mmHg 57%
    16:00 +9°C° 0.2 mm 10 mps 752 mmHg 59%
    17:00 +10°C° 0.1 mm 9 mps 752 mmHg 61%
    18:00 +9°C° 0.1 mm 8 mps 753 mmHg 62%
    19:00 +8°C° 0.1 mm 6 mps 754 mmHg 63%
    20:00 +8°C° 0 mm 6 mps 754 mmHg 65%
    21:00 +7°C° 0 mm 5 mps 755 mmHg 66%
    22:00 +7°C° 0 mm 5 mps 756 mmHg 67%
    23:00 +7°C° 0 mm 5 mps 756 mmHg 69%

    25 September, Tuesday

    Time Temperature Precipitation Wind Pressure Humidity
    00:00 +6°C° 0 mm 5 mps 757 mmHg 70%
    01:00 +6°C° 0 mm 5 mps 757 mmHg 71%
    02:00 +5°C° 0 mm 4 mps 757 mmHg 73%
    03:00 +5°C° 0 mm 4 mps 758 mmHg 75%
    04:00 +5°C° 0 mm 4 mps 758 mmHg 77%
    05:00 +5°C° 0 mm 4 mps 759 mmHg 75%
    06:00 +5°C° 0 mm 5 mps 760 mmHg 73%
    07:00 +6°C° 0 mm 5 mps 760 mmHg 72%
    08:00 +7°C° 0 mm 5 mps 761 mmHg 63%
    09:00 +9°C° 0 mm 5 mps 761 mmHg 54%
    10:00 +10°C° 0 mm 6 mps 762 mmHg 45%
    11:00 +11°C° 0 mm 6 mps 762 mmHg 44%
    12:00 +13°C° 0 mm 6 mps 762 mmHg 42%
    13:00 +13°C° 0 mm 6 mps 762 mmHg 40%
    14:00 +13°C° 0 mm 5 mps 762 mmHg 41%
    15:00 +13°C° 0 mm 5 mps 762 mmHg 42%
    16:00 +13°C° 0 mm 5 mps 762 mmHg 43%
    17:00 +11°C° 0 mm 4 mps 763 mmHg 47%
    18:00 +10°C° 0 mm 3 mps 763 mmHg 51%
    19:00 +9°C° 0 mm 3 mps 763 mmHg 55%
    20:00 +9°C° 0 mm 3 mps 763 mmHg 57%
    21:00 +8°C° 0 mm 3 mps 763 mmHg 59%
    22:00 +8°C° 0 mm 3 mps 764 mmHg 61%
    23:00 +7°C° 0 mm 3 mps 764 mmHg 63%

    26 September, Wednesday

    Time Temperature Precipitation Wind Pressure Humidity
    00:00 +7°C° 0 mm 3 mps 764 mmHg 64%
    01:00 +7°C° 0 mm 3 mps 763 mmHg 65%
    02:00 +5°C° 0 mm 3 mps 763 mmHg 67%
    03:00 +5°C° 0 mm 3 mps 763 mmHg 68%
    04:00 +5°C° 0 mm 3 mps 763 mmHg 70%
    05:00 +5°C° 0 mm 4 mps 762 mmHg 69%
    06:00 +6°C° 0 mm 4 mps 762 mmHg 68%
    07:00 +6°C° 0 mm 4 mps 762 mmHg 67%
    08:00 +7°C° 0 mm 5 mps 762 mmHg 62%
    09:00 +9°C° 0 mm 5 mps 761 mmHg 57%
    10:00 +11°C° 0 mm 6 mps 761 mmHg 52%
    11:00 +13°C° 0 mm 6 mps 760 mmHg 49%
    12:00 +13°C° 0 mm 6 mps 760 mmHg 46%
    13:00 +14°C° 0 mm 6 mps 759 mmHg 43%
    14:00 +14°C° 0 mm 6 mps 758 mmHg 44%
    15:00 +14°C° 0 mm 6 mps 758 mmHg 45%
    16:00 +14°C° 0 mm 5 mps 757 mmHg 46%
    17:00 +13°C° 0 mm 5 mps 757 mmHg 48%
    18:00 +12°C° 0 mm 5 mps 757 mmHg 50%
    19:00 +12°C° 0 mm 4 mps 756 mmHg 53%
    20:00 +10°C° 0 mm 5 mps 756 mmHg 53%
    21:00 +10°C° 0 mm 5 mps 756 mmHg 53%
    22:00 +10°C° 0 mm 5 mps 756 mmHg 54%
    23:00 +10°C° 0 mm 5 mps 756 mmHg 55%

    27 September, Thursday

    Time Temperature Precipitation Wind Pressure Humidity
    00:00 +9°C° 0 mm 5 mps 755 mmHg 56%
    01:00 +9°C° 0 mm 5 mps 755 mmHg 57%
    02:00 +9°C° 0 mm 5 mps 755 mmHg 58%
    03:00 +9°C° 0 mm 6 mps 754 mmHg 58%
    04:00 +9°C° 0 mm 6 mps 754 mmHg 59%
    05:00 +9°C° 0 mm 6 mps 754 mmHg 59%
    06:00 +9°C° 0 mm 6 mps 753 mmHg 59%
    07:00 +9°C° 0 mm 7 mps 753 mmHg 59%
    08:00 +11°C° 0 mm 7 mps 753 mmHg 55%
    09:00 +12°C° 0 mm 7 mps 752 mmHg 51%
    10:00 +15°C° 0 mm 7 mps 752 mmHg 47%
    11:00 +16°C° 0 mm 7 mps 751 mmHg 45%
    12:00 +17°C° 0 mm 8 mps 751 mmHg 42%
    13:00 +18°C° 0 mm 8 mps 750 mmHg 40%
    14:00 +18°C° 0 mm 7 mps 750 mmHg 41%
    15:00 +18°C° 0 mm 7 mps 749 mmHg 41%
    16:00 +19°C° 0 mm 6 mps 749 mmHg 42%
    17:00 +17°C° 0 mm 6 mps 748 mmHg 43%
    18:00 +16°C° 0 mm 6 mps 748 mmHg 44%
    19:00 +16°C° 0 mm 6 mps 748 mmHg 45%
    20:00 +15°C° 0 mm 7 mps 748 mmHg 47%
    21:00 +15°C° 0 mm 7 mps 748 mmHg 49%
    22:00 +15°C° 0 mm 7 mps 748 mmHg 52%
    23:00 +14°C° 0.1 mm 7 mps 748 mmHg 59%
    Show more